Location: DARK SKY Beskydy - Park tmavé oblohy, www.darkskybeskydy.cz
(49.4926°N, 18.5016°E)
Time: 12:06:32
(UTC+01:00)

Altair - All Passes

Search period start: 22 February 2024 00:00
Search period end: 03 March 2024 00:00
Orbit: 1501 x 1682 km, 47.2° (Epoch: 21 February)

Date Brightness Start Highest point End Pass type
(mag) Time Alt. Az. Time Alt. Az. Time Alt. Az.
22 Feb - 08:58:43 10° S 09:05:33 24° SE 09:12:29 10° E daylight
22 Feb - 10:59:46 10° SW 11:08:42 57° SSE 11:17:58 10° E daylight
22 Feb - 13:03:40 10° W 13:13:01 79° S 13:22:45 10° E daylight
22 Feb - 15:08:09 10° W 15:17:29 64° SSW 15:27:12 10° ESE daylight
22 Feb - 17:13:04 10° W 17:21:06 31° SW 17:29:21 10° SSE daylight
23 Feb - 08:34:01 10° S 08:40:30 22° SE 08:47:05 10° E daylight
23 Feb - 10:34:42 10° SW 10:43:34 55° SSE 10:52:43 10° ENE daylight
23 Feb - 12:38:30 10° W 12:47:49 79° S 12:57:30 10° E daylight
23 Feb - 14:42:58 10° W 14:52:18 66° SSW 15:02:01 10° ESE daylight
23 Feb - 16:47:47 10° W 16:56:00 33° SW 17:04:27 10° SSE daylight
24 Feb - 08:09:24 10° S 08:15:29 20° SE 08:21:38 10° E daylight
24 Feb - 10:09:40 10° SW 10:18:26 52° SSE 10:27:29 10° ENE daylight
24 Feb - 12:13:19 10° WSW 12:22:37 78° S 12:32:16 10° E daylight
24 Feb - 14:17:47 10° W 14:27:07 68° SSW 14:36:49 10° ESE daylight
24 Feb - 16:22:33 10° W 16:30:53 35° SW 16:39:30 10° SSE daylight
25 Feb - 07:44:50 10° SSE 07:50:27 18° SE 07:56:08 10° E daylight
25 Feb - 09:44:38 10° SW 09:53:19 49° SSE 10:02:15 10° ENE daylight
25 Feb - 11:48:10 10° WSW 11:57:25 77° S 12:07:01 10° E daylight
25 Feb - 13:52:37 10° W 14:01:57 70° SSW 14:11:37 10° ESE daylight
25 Feb - 15:57:18 10° W 16:05:46 38° SW 16:14:32 10° SSE daylight
25 Feb - 18:06:19 10° WSW 18:08:20 11° WSW 18:10:23 10° SW visible
26 Feb - 07:20:21 10° SSE 07:25:27 16° SE 07:30:34 10° E daylight
26 Feb - 09:19:37 10° SW 09:28:12 47° SSE 09:37:00 10° ENE daylight
26 Feb - 11:23:00 10° WSW 11:32:14 76° S 11:41:47 10° E daylight
26 Feb - 13:27:26 10° W 13:36:45 72° SSW 13:46:25 10° ESE daylight
26 Feb - 15:32:05 10° WNW 15:40:39 40° SW 15:49:32 10° SSE daylight
26 Feb - 17:39:54 10° WSW 17:43:19 12° WSW 17:46:46 10° SW daylight
27 Feb - 06:56:00 10° SSE 07:00:26 15° SE 07:04:54 10° E daylight
27 Feb - 08:54:37 10° SSW 09:03:06 44° SE 09:11:46 10° ENE daylight
27 Feb - 10:57:51 10° WSW 11:07:03 75° S 11:16:33 10° E daylight
27 Feb - 13:02:16 10° W 13:11:34 73° SSW 13:21:12 10° ESE daylight
27 Feb - 15:06:52 10° WNW 15:15:32 42° SW 15:24:31 10° SSE daylight
27 Feb - 17:13:58 10° W 17:18:18 14° SW 17:22:40 10° SSW daylight
28 Feb - 06:31:49 10° SSE 06:35:26 13° SE 06:39:03 10° E daylight
28 Feb - 08:29:38 10° SSW 08:38:00 42° SE 08:46:31 10° ENE daylight
28 Feb - 10:32:42 10° WSW 10:41:52 73° SSE 10:51:19 10° E daylight
28 Feb - 12:37:05 10° W 12:46:22 75° SSW 12:56:00 10° ESE daylight
28 Feb - 14:41:39 10° WNW 14:50:24 45° SW 14:59:28 10° SE daylight
28 Feb - 16:48:15 10° W 16:53:16 15° SW 16:58:21 10° SSW daylight
29 Feb - 06:08:01 10° SE 06:10:26 11° ESE 06:12:53 10° ESE daylight
29 Feb - 08:04:41 10° SSW 08:12:54 39° SE 08:21:16 10° ENE daylight
29 Feb - 10:07:33 10° WSW 10:16:41 72° SSE 10:26:06 10° E daylight
29 Feb - 12:11:55 10° W 12:21:10 76° S 12:30:47 10° ESE daylight
29 Feb - 14:16:27 10° WNW 14:25:17 47° SSW 14:34:25 10° SE daylight
29 Feb - 16:22:40 10° W 16:28:13 17° SW 16:33:54 10° SSW daylight
01 Mar - 07:39:45 10° SSW 07:47:49 37° SE 07:56:01 10° E daylight
01 Mar - 09:42:25 10° WSW 09:51:31 70° SSE 10:00:52 10° E daylight
01 Mar - 11:46:44 10° W 11:56:00 77° S 12:05:34 10° ESE daylight
01 Mar - 13:51:16 10° WNW 14:00:08 50° SSW 14:09:20 10° SE daylight
01 Mar - 15:57:10 10° W 16:03:11 19° SW 16:09:20 10° S daylight
02 Mar - 07:14:50 10° SSW 07:22:45 34° SE 07:30:45 10° E daylight
02 Mar - 09:17:17 10° WSW 09:26:21 68° SSE 09:35:39 10° E daylight
02 Mar - 11:21:33 10° W 11:30:48 78° S 11:40:20 10° ESE daylight
02 Mar - 13:26:04 10° WNW 13:35:00 52° SSW 13:44:14 10° SE daylight
02 Mar - 15:31:43 10° W 15:38:07 21° SW 15:44:42 10° S daylight
